| time (UTC) | temp C | wind direction | speed KPH | gust KPH | rain 1hr cm | rain 24hr cm | rain mn cm | humidity % | barometer mb |
| 20260504150736 | 20 | 279 | 6.4 | 3.2 | 0.00 | 0.00 | 0.00 | 90 | 1015.0 |
| 20260504140733 | 20 | 120 | 4.8 | 0.0 | 0.00 | 0.00 | 0.00 | 10 | 1016.0 |
| 20260504130729 | 17 | 0 | 1.6 | 0.0 | 0.00 | 0.00 | 0.00 | 10 | 1016.0 |
| 20260504080707 | 13 | 100 | 6.4 | 3.2 | 0.00 | 0.00 | 0.00 | 84 | 1016.0 |
| 20260504050654 | 15 | 112 | 4.8 | 1.6 | 0.00 | 0.00 | 0.00 | 84 | 1017.0 |
| 20260504045151 | 14 | 112 | 4.8 | 1.6 | 0.00 | 0.00 | 0.00 | 84 | 1017.0 |
| 20260504043651 | 15 | 112 | 4.8 | 1.6 | 0.00 | 0.00 | 0.00 | 84 | 1017.0 |
| 20260504042152 | 14 | 107 | 4.8 | 1.6 | 0.03 | 0.00 | 0.00 | 84 | 1017.0 |
| 20260504040648 | 15 | 107 | 4.8 | 3.2 | 0.03 | 0.00 | 0.00 | 84 | 1017.0 |
| 20260504035146 | 14 | 107 | 4.8 | 1.6 | 0.00 | 0.00 | 0.00 | 86 | 1017.0 |
| 20260504033646 | 15 | 107 | 4.8 | 3.2 | 0.00 | 0.00 | 0.00 | 85 | 1017.0 |
| 20260504032145 | 14 | 107 | 6.4 | 1.6 | 0.00 | 0.00 | 0.00 | 85 | 1017.0 |
| 20260504030645 | 15 | 107 | 6.4 | 3.2 | 0.00 | 0.00 | 0.00 | 85 | 1017.0 |
| 20260504025144 | 14 | 100 | 4.8 | 0.0 | 0.00 | 0.00 | 0.00 | 84 | 1017.0 |
| 20260504023644 | 15 | 100 | 4.8 | 0.0 | 0.00 | 0.00 | 0.00 | 84 | 1017.0 |
| 20260504022143 | 15 | 100 | 4.8 | 0.0 | 0.00 | 0.00 | 0.00 | 84 | 1016.0 |
| 20260504020643 | 16 | 100 | 4.8 | 0.0 | 0.00 | 0.00 | 0.00 | 85 | 1016.0 |
| 20260504015142 | 17 | 100 | 4.8 | 0.0 | 0.00 | 0.00 | 0.00 | 86 | 1016.0 |
| 20260504013643 | 19 | 100 | 4.8 | 0.0 | 0.00 | 0.00 | 0.00 | 88 | 1016.0 |
| 20260504012141 | 20 | 100 | 4.8 | 0.0 | 0.00 | 0.00 | 0.00 | 89 | 1015.0 |
| 20260504010640 | 15 | 107 | 6.4 | 1.6 | 0.00 | 0.00 | 0.00 | 82 | 1015.0 |
| 20260504005139 | 15 | 107 | 6.4 | 1.6 | 0.00 | 0.00 | 0.00 | 82 | 1015.0 |
| 20260504003637 | 16 | 107 | 6.4 | 3.2 | 0.00 | 0.00 | 0.00 | 82 | 1015.0 |
| 20260504002135 | 15 | 125 | 1.6 | 6.4 | 0.00 | 0.00 | 0.00 | 80 | 1014.0 |
| 20260504000634 | 16 | 125 | 1.6 | 6.4 | 0.00 | 0.00 | 0.00 | 80 | 1014.0 |
| 20260503235132 | 16 | 125 | 1.6 | 6.4 | 0.00 | 0.00 | 0.00 | 80 | 1014.0 |
| 20260503233631 | 17 | 125 | 1.6 | 6.4 | 0.00 | 0.00 | 0.00 | 80 | 1013.0 |
| 20260503232129 | 16 | 95 | 1.6 | 1.6 | 0.13 | 0.00 | 0.00 | 80 | 1012.0 |
| 20260503230628 | 17 | 95 | 1.6 | 1.6 | 0.00 | 0.00 | 0.00 | 80 | 1012.0 |
| 20260503225125 | 17 | 95 | 1.6 | 1.6 | 0.00 | 0.00 | 0.00 | 80 | 1012.0 |
| 20260503223625 | 18 | 95 | 3.2 | 1.6 | 0.00 | 0.00 | 0.00 | 80 | 1012.0 |
| 20260503222123 | 17 | 0 | 1.6 | 0.0 | 0.00 | 0.00 | 0.00 | 81 | 1011.0 |
| 20260503220622 | 17 | 0 | 1.6 | 0.0 | 0.00 | 0.00 | 0.00 | 81 | 1011.0 |
| 20260503215122 | 18 | 0 | 1.6 | 0.0 | 0.00 | 0.00 | 0.00 | 80 | 1011.0 |
| 20260503213621 | 18 | 0 | 1.6 | 0.0 | 0.00 | 0.00 | 0.00 | 80 | 1011.0 |
| 20260503212121 | 19 | 0 | 1.6 | 0.0 | 0.00 | 0.00 | 0.00 | 80 | 1011.0 |
| 20260503210620 | 20 | 0 | 1.6 | 0.0 | 0.00 | 0.00 | 0.00 | 80 | 1011.0 |
| 20260503205120 | 21 | 0 | 3.2 | 0.0 | 0.00 | 0.00 | 0.00 | 80 | 1011.0 |
| 20260503203618 | 21 | 0 | 3.2 | 0.0 | 0.00 | 0.00 | 0.00 | 81 | 1011.0 |
| 20260503202118 | 21 | 290 | 12.9 | 0.0 | 0.00 | 0.00 | 0.00 | 76 | 1011.0 |
| 20260503200614 | 21 | 290 | 12.9 | 0.0 | 0.00 | 0.00 | 0.00 | 74 | 1011.0 |
| 20260503195114 | 22 | 290 | 12.9 | 0.0 | 0.00 | 0.00 | 0.00 | 71 | 1011.0 |
| 20260503193614 | 22 | 290 | 12.9 | 0.0 | 0.00 | 0.00 | 0.00 | 71 | 1011.0 |
| 20260503192112 | 22 | 290 | 12.9 | 0.0 | 0.00 | 0.00 | 0.00 | 71 | 1011.0 |
| 20260503190612 | 22 | 290 | 12.9 | 0.0 | 0.00 | 0.00 | 0.00 | 72 | 1011.0 |
| 20260503185108 | 22 | 310 | 9.7 | 0.0 | 0.00 | 0.00 | 0.00 | 72 | 1011.0 |
| 20260503183608 | 23 | 310 | 9.7 | 0.0 | 0.00 | 0.00 | 0.00 | 72 | 1011.0 |
| 20260503182107 | 23 | 310 | 9.7 | 0.0 | 0.00 | 0.00 | 0.00 | 72 | 1012.0 |
| 20260503180606 | 23 | 300 | 12.9 | 0.0 | 0.00 | 0.00 | 0.00 | 73 | 1012.0 |
| 20260503175103 | 23 | 300 | 12.9 | 0.0 | 0.00 | 0.00 | 0.00 | 74 | 1012.0 |
| 20260503173557 | 22 | 300 | 12.9 | 0.0 | 0.00 | 0.00 | 0.00 | 77 | 1013.0 |
| 20260503172056 | 22 | 300 | 12.9 | 0.0 | 0.00 | 0.00 | 0.00 | 77 | 1014.0 |
| 20260503170555 | 23 | 277 | 4.8 | 3.2 | 0.00 | 0.00 | 0.00 | 78 | 1014.0 |